Tracking 18856 objects as of 11-Dec-2017
HD Live streaming from Space Station
objects crossing your sky now

CZ-4C DEB

Track CZ-4C DEB now!
10-day predictions


NORAD ID: 38305
Int'l Code: 2010-009J
Perigee: 1,205.3 km
Apogee: 1,334.6 km
Inclination: 63.5 °
Period: 110.8 minutes
Semi major axis: 7640 km
RCS: 0.0013 m2 (small)
Launch date: March 5, 2010
Source: People's Republic of China (PRC)
Launch site: Jiuquan Satellite Launch Center, China (JSC)

Note: This is SATELLITE DEBRIS
aabbcc
Your satellite tracking list
Your tracking list is empty




NASA's NSSDC Master Catalog

Two Line Element Set (TLE):
1 38305U 10009J   17344.45673764 -.00000002 +00000-0 +25232-3 0  9990
2 38305 063.4991 322.1668 0084635 071.0380 013.1703 12.99822181368292
Source of the keplerian elements: AFSPC